VLVT

Details ICAO VLVT (VTE)
Name Vientiane Wattay
Region Laos
Timezone Asia/Vientiane (UTC+7.0)
Plans Departing 104
Arriving 99
Stats Elevation 1,850 ft / 564 m (AMSL)
Location 17.988343° 102.563222°
Runways 1
Magnetic Variation 0.902° W
Sunrise 2018-05-20 22:36:40 UTC / 2018-05-21 05:36:40 Local
Sunset 2018-05-21 11:38:49 UTC / 2018-05-21 18:38:49 Local
Advertisement - Login to hide

Runways

ID Width Length Bearing (true) Bearing (mag) Surface Threshold Offset Overrun Length
13 148 ft / 45 m 9,862 ft / 3,006 m 135.42° 136.32° Asphalt 0 ft / 0 m 0 ft / 0 m
31 148 ft / 45 m 9,862 ft / 3,006 m 315.42° 316.32° Asphalt 0 ft / 0 m 0 ft / 0 m

Approach Navaids

Runway Type Ident Frequency Range Bearing (true) Bearing (mag) Slope Elevation
13 Localiser IVTN 109.90 MHz 18 nm / 33 km 135.43° 136.33° - 553 ft / 169 m (AMSL)
13 Glidescope IVTN 109.90 MHz 10 nm / 19 km 136.00° 136.90° 3.00° 550 ft / 168 m (AMSL)
13 DME IVTN 109.90 MHz 18 nm / 33 km - - - 550 ft / 168 m (AMSL)

Map

Weather


0- 5 10 15 20 25 30 35+ Temperature / ° C

Clouds and Precipitation
Forecast for 2018-05-21 06:00 UTC. Updated 19 minutes ago

Ground ~20,000 ft ~40,000 ft Winds

METAR

VLVT 210500Z 18004KT 9999 SCT020 SCT040 34/23 Q1008 NOSIG

TAF

TAF TAF VLVT 202300Z 2100/2124 32004KT 8000 SCT020 SCT050 TEMPO 2100/2103 5000 BR SCT040 FEW200

Frequencies

Tower 118.10 MHz TWR
Warning: Do not use this data for real-world aviation or navigation. No guarantee of current accuracy is given.